TimePST,TemperatureF,Dew PointF,Humidity,Sea Level PressureIn,VisibilityMPH,Wind Direction,Wind SpeedMPH,Gust SpeedMPH,PrecipitationIn,Events,Conditions,WindDirDegrees,DateUTC
12:15 AM,30.2,-2.2,25,30.26,10.0,West,12.7,-,N/A,,Clear,270,2014-01-05 08:15:00
12:35 AM,30.2,-0.4,27,30.26,10.0,West,10.4,-,N/A,,Clear,270,2014-01-05 08:35:00
12:55 AM,30.2,1.4,29,30.26,10.0,West,13.8,-,N/A,,Clear,270,2014-01-05 08:55:00
1:15 AM,30.2,-0.4,27,30.26,10.0,West,10.4,-,N/A,,Clear,270,2014-01-05 09:15:00
1:35 AM,24.8,-0.4,34,30.27,10.0,Calm,Calm,-,N/A,,Clear,0,2014-01-05 09:35:00
1:55 AM,30.2,-2.2,25,30.28,10.0,West,12.7,-,N/A,,Clear,270,2014-01-05 09:55:00
2:15 AM,26.6,-2.2,29,30.28,10.0,West,9.2,-,N/A,,Clear,270,2014-01-05 10:15:00
2:35 AM,28.4,-2.2,27,30.28,10.0,West,12.7,-,N/A,,Clear,280,2014-01-05 10:35:00
2:55 AM,28.4,-2.2,27,30.28,10.0,West,10.4,-,N/A,,Clear,270,2014-01-05 10:55:00
3:15 AM,30.2,-4.0,23,30.29,10.0,West,12.7,-,N/A,,Clear,280,2014-01-05 11:15:00
3:35 AM,30.2,-4.0,23,30.30,10.0,West,12.7,-,N/A,,Clear,270,2014-01-05 11:35:00
3:55 AM,28.4,-4.0,25,30.30,10.0,West,15.0,-,N/A,,Clear,270,2014-01-05 11:55:00
4:15 AM,28.4,-4.0,25,30.30,10.0,West,15.0,-,N/A,,Clear,270,2014-01-05 12:15:00
4:35 AM,28.4,-4.0,25,30.30,10.0,West,10.4,-,N/A,,Clear,260,2014-01-05 12:35:00
4:55 AM,26.6,-4.0,26,30.30,10.0,West,11.5,-,N/A,,Clear,260,2014-01-05 12:55:00
5:15 AM,26.6,-4.0,26,30.30,10.0,West,10.4,-,N/A,,Clear,270,2014-01-05 13:15:00
5:35 AM,26.6,-4.0,26,30.31,10.0,West,11.5,-,N/A,,Clear,270,2014-01-05 13:35:00
5:55 AM,28.4,-5.8,23,30.31,10.0,West,12.7,-,N/A,,Clear,260,2014-01-05 13:55:00
6:15 AM,28.4,-5.8,23,30.32,10.0,West,9.2,-,N/A,,Clear,270,2014-01-05 14:15:00
6:35 AM,28.4,-5.8,23,30.32,10.0,West,11.5,-,N/A,,Clear,270,2014-01-05 14:35:00
6:55 AM,24.8,-2.2,31,30.33,10.0,West,11.5,-,N/A,,Clear,270,2014-01-05 14:55:00
7:15 AM,24.8,-4.0,28,30.33,10.0,West,10.4,-,N/A,,Clear,280,2014-01-05 15:15:00
7:35 AM,26.6,-4.0,26,30.34,10.0,West,12.7,-,N/A,,Clear,260,2014-01-05 15:35:00
7:55 AM,28.4,-4.0,25,30.36,10.0,West,12.7,-,N/A,,Clear,260,2014-01-05 15:55:00
8:15 AM,30.2,-4.0,23,30.37,10.0,West,11.5,-,N/A,,Clear,260,2014-01-05 16:15:00
8:35 AM,32.0,-4.0,21,30.37,10.0,West,10.4,-,N/A,,Clear,260,2014-01-05 16:35:00
8:55 AM,35.6,-4.0,18,30.38,10.0,West,9.2,-,N/A,,Clear,270,2014-01-05 16:55:00
9:15 AM,37.4,-2.2,19,30.38,10.0,West,9.2,-,N/A,,Clear,270,2014-01-05 17:15:00
9:35 AM,39.2,-4.0,16,30.38,10.0,West,4.6,-,N/A,,Clear,260,2014-01-05 17:35:00
9:55 AM,41.0,-2.2,16,30.38,10.0,Calm,Calm,-,N/A,,Clear,0,2014-01-05 17:55:00
10:15 AM,42.8,-2.2,15,30.38,10.0,SE,4.6,-,N/A,,Clear,140,2014-01-05 18:15:00
10:35 AM,42.8,-2.2,15,30.38,10.0,ESE,4.6,-,N/A,,Clear,120,2014-01-05 18:35:00
10:55 AM,44.6,-2.2,14,30.37,10.0,Calm,Calm,-,N/A,,Clear,0,2014-01-05 18:55:00
11:15 AM,50.0,-13.0,7,30.36,10.0,West,9.2,-,N/A,,Clear,260,2014-01-05 19:15:00
11:35 AM,50.0,-11.2,8,30.35,10.0,WNW,5.8,-,N/A,,Clear,290,2014-01-05 19:35:00
11:55 AM,51.8,-9.4,8,30.34,10.0,WSW,6.9,-,N/A,,Clear,250,2014-01-05 19:55:00
12:15 PM,51.8,-4.0,10,30.33,10.0,ESE,3.5,-,N/A,,Clear,110,2014-01-05 20:15:00
12:35 PM,51.8,-5.8,9,30.31,10.0,WSW,3.5,-,N/A,,Clear,250,2014-01-05 20:35:00
12:55 PM,53.6,-5.8,9,30.31,10.0,West,3.5,-,N/A,,Clear,260,2014-01-05 20:55:00
1:15 PM,53.6,-5.8,9,30.30,10.0,Calm,Calm,-,N/A,,Clear,0,2014-01-05 21:15:00
1:35 PM,55.4,-4.0,9,30.30,10.0,SE,4.6,-,N/A,,Clear,140,2014-01-05 21:35:00
1:55 PM,53.6,-2.2,10,30.30,10.0,ESE,5.8,-,N/A,,Clear,120,2014-01-05 21:55:00
2:15 PM,55.4,-2.2,9,30.30,10.0,SE,3.5,-,N/A,,Clear,130,2014-01-05 22:15:00
2:35 PM,55.4,-4.0,9,30.30,10.0,Calm,Calm,-,N/A,,Clear,0,2014-01-05 22:35:00
2:55 PM,55.4,-2.2,9,30.30,10.0,ESE,6.9,-,N/A,,Clear,110,2014-01-05 22:55:00
3:15 PM,53.6,-2.2,10,30.30,10.0,ESE,6.9,-,N/A,,Clear,120,2014-01-05 23:15:00
3:35 PM,51.8,-2.2,11,30.31,10.0,SE,5.8,-,N/A,,Clear,130,2014-01-05 23:35:00
3:55 PM,48.2,-4.0,11,30.31,10.0,ESE,6.9,-,N/A,,Clear,120,2014-01-05 23:55:00
4:15 PM,44.6,-2.2,14,30.31,10.0,Calm,Calm,-,N/A,,Clear,0,2014-01-06 00:15:00
4:35 PM,42.8,-2.2,15,30.31,10.0,West,3.5,-,N/A,,Clear,270,2014-01-06 00:35:00
4:55 PM,39.2,-0.4,19,30.32,10.0,Calm,Calm,-,N/A,,Clear,0,2014-01-06 00:55:00
5:15 PM,37.4,-2.2,19,30.33,10.0,Calm,Calm,-,N/A,,Clear,0,2014-01-06 01:15:00
5:35 PM,35.6,-0.4,22,30.33,10.0,Calm,Calm,-,N/A,,Clear,0,2014-01-06 01:35:00
5:55 PM,33.8,1.4,25,30.34,10.0,North,3.5,-,N/A,,Clear,360,2014-01-06 01:55:00
6:15 PM,33.8,3.2,28,30.35,10.0,North,3.5,-,N/A,,Clear,10,2014-01-06 02:15:00
6:35 PM,30.2,3.2,32,30.35,10.0,NW,3.5,-,N/A,,Clear,310,2014-01-06 02:35:00
6:55 PM,28.4,3.2,34,30.36,10.0,North,4.6,-,N/A,,Clear,360,2014-01-06 02:55:00
7:15 PM,30.2,3.2,32,30.36,10.0,North,3.5,-,N/A,,Clear,350,2014-01-06 03:15:00
7:35 PM,30.2,3.2,32,30.37,10.0,Calm,Calm,-,N/A,,Clear,0,2014-01-06 03:35:00
7:55 PM,26.6,3.2,37,30.37,10.0,NNW,3.5,-,N/A,,Clear,340,2014-01-06 03:55:00
8:15 PM,30.2,3.2,32,30.38,10.0,NNW,3.5,-,N/A,,Clear,330,2014-01-06 04:15:00
8:35 PM,28.4,5.0,37,30.38,10.0,NNW,4.6,-,N/A,,Clear,330,2014-01-06 04:35:00
8:55 PM,26.6,3.2,37,30.38,10.0,Calm,Calm,-,N/A,,Clear,0,2014-01-06 04:55:00
9:15 PM,26.6,3.2,37,30.38,10.0,NNW,3.5,-,N/A,,Clear,330,2014-01-06 05:15:00
9:35 PM,24.8,3.2,40,30.38,10.0,Calm,Calm,-,N/A,,Clear,0,2014-01-06 05:35:00
9:55 PM,23.0,5.0,46,30.39,10.0,Calm,Calm,-,N/A,,Clear,0,2014-01-06 05:55:00
10:15 PM,23.0,5.0,46,30.39,10.0,NW,3.5,-,N/A,,Clear,310,2014-01-06 06:15:00
10:35 PM,21.2,5.0,50,30.39,10.0,NNW,3.5,-,N/A,,Clear,340,2014-01-06 06:35:00
10:55 PM,21.2,3.2,46,30.39,10.0,Calm,Calm,-,N/A,,Clear,0,2014-01-06 06:55:00
11:15 PM,21.2,3.2,46,30.39,10.0,Calm,Calm,-,N/A,,Clear,0,2014-01-06 07:15:00
11:35 PM,21.2,3.2,46,30.39,10.0,Calm,Calm,-,N/A,,Clear,0,2014-01-06 07:35:00
11:55 PM,14.0,-0.4,53,30.39,10.0,Calm,Calm,-,N/A,,Clear,0,2014-01-06 07:55:00